User: anonymous   Login
Location: Unspecified
(0.0000°N, 0.0000°E)
Time: 09:18:04
(UTC+00:00)
Language:

GONETS M 11 (M21) - Orbit

View from above orbital plane
View from above orbital plane
View from above satellite
View from above satellite

Ground track
Ground track

The orbit data is extracted from the following two-line orbital elements,

1 40552U 15020A   17268.92172302 +.00000010 +00000-0 +00000-0 0  9995
2 40552 082.4876 216.2165 0016985 107.6438 252.6497 12.42869005112954
Epoch (UTC): 25 September 2017 22:07:16
Eccentricity: 0.0016985
inclination: 82.4876°
perigee height: 1481 km
apogee height: 1508 km
right ascension of ascending node: 216.2165°
argument of perigee: 107.6438°
revolutions per day: 12.42869005
mean anomaly at epoch: 252.6497°
orbit number at epoch: 11295

The dashed part of the orbit path shows where the satellite is in the earth's shadow,  

DLR